Location: Meanaryar
(48.4161°N, 4.7315°W)
Time: 17:32:48
(UTC+00:00)

Cosmos 1536 Rocket - Pass Details

Date: 18 September 2020
Orbit: 606 x 632 km, 82.5° (Epoch: 29 October)

Event Time Altitude Azimuth Distance (km) Brightness Sun altitude
Rises 20:08:54 0° 350° (N) 2,915 7.5 -17.6°
Reaches altitude 10° 20:11:08 10° 350° (N) 2,008 6.6 -18.0°
Maximum altitude 20:15:35 87° 266° (W) 636 3.5 -18.7°
Enters shadow 20:18:27 22° 174° (S) 1,381 5.0 -19.1°
